Tracking 28081 objects as of 26-Sep-2023
HD Live streaming from Space Station
objects crossing your sky now

STTW-T2

Track STTW-T2 now!
STTW-T2 is classified as:


NORAD ID: 14899
Int'l Code: 1984-035A
Perigee: 35,777.4 km
Apogee: 35,873.9 km
Inclination: 11.2 °
Period: 1,437.7 minutes
Semi major axis: 42196 km
RCS: 3.981 m2 (large)
Launch date: April 8, 1984
Source: People's Republic of China (PRC)
Launch site: Xichang Space Center, China (XSC)
Your satellite tracking list
Your tracking list is empty




NASA's NSSDC Master Catalog

Two Line Element Set (TLE):
1 14899U 84035A   23268.71049135 -.00000074  00000-0  00000-0 0  9994
2 14899  11.1688 324.7210 0011426 166.3044 202.7936  1.00158096 37396
Source of the keplerian elements: AFSPC